THOR ABLESTAR DEB, 13513

Orbit data source: Space-Track

THOR ABLESTAR DEB, 13513 is space debris in LEO originally from a launch on Thu, 29 Jun 1961 UTC launched from the Air Force Eastern Test Range (AFETR). Debris objects in space refer to the collection of defunct objects orbiting the Earth. Examples of debris include non-operational satellites, rocket bodies, and fragments generated from explosions, collisions, or faulty payload assembly.

Loading next visibility...
Identifier
13513, 1961-015KW
Orbit
LEO
Country
Flag of USUS
Related business
Manufacturer
Unknown
Mission
Spacecraft
Bus & Motor
Unknown
Mass
Unknown
Launch date (UTC)
1961-06-29 (65 years ago)
Launch vehicle
Unknown
Launch site
Air Force Eastern Test Range (AFETR)
Object type
Payload
Rocket body
Debris
Shape & HBR
Unknown shape, 0.1 m
Radar Cross Section
Small (<0.1 m²)

Expand to show TLE details & history
Last TLE update: 16 hours ago

TLE from 16 hours ago
0 THOR ABLESTAR DEB
1 13513U 61015KW  26034.84801068  .00001253  00000-0  10484-2 0  9996
2 13513  65.6787 172.5606 0103388 276.0645 241.8987 13.89461452300638
Epoch: 2026-02-03T20:21Z
TLE epoch observation values (Epoch: 2026-02-03T20:21:08.122Z)
Latitude
20.9499°
Longitude
-96.6586°
Altitude
968.38 km
Speed
7.351 km/s
True Right ascension
22h 50m 35s
True Declination
20° 50' 19"
Sunlit
Object was in daylight at epoch
Visualization orbit readout
Latitude
Unknown
Longitude
Unknown
Altitude
Unknown
Speed
Unknown
Apparent Right ascension
Unknown
Apparent Declination
Unknown
Sunlit
N/A
Visualization observer readout
Local Sidereal Time
14:00:40
Azimuth
Unknown
Elevation
Unknown
Doppler factor
Unknown
Orbital elements
Apogee altitude
1,004.591 km
Perigee altitude
853.496 km
Semi-major axis
7,307.18 km
Eccentricity
0.01034
Inclination
65.6787°
RAAN
172.5606°
Arg. of periapsis
276.0645°
True anomaly
240.86°
Mean anomaly
241.8987°
Eccentric anomaly
241.37871°
Mean motion
3.47471 °/min
Orbital period
103.61 mins
BSTAR
0.0010484

Documentation

Showing up to 5 results
|